Location: Unspecified
(35.7250°N, 0.0000°E)
Time: 04:55:31
(UTC+00:00)

Vanguard 3 - Visible Passes

Search period start: 26 June 2019 00:00
Search period end: 06 July 2019 00:00
Orbit: 508 x 3263 km, 33.3° (Epoch: 24 June)

Date Brightness Start Highest point End Pass type
(mag) Time Alt. Az. Time Alt. Az. Time Alt. Az.
30 Jun 11.5 04:19:40 10° SSE 04:25:22 12° SE 04:31:01 10° ESE visible
02 Jul 11.4 03:59:24 10° SSE 04:08:11 15° SE 04:17:06 10° ESE visible
04 Jul 11.2 03:40:29 10° SSE 03:50:53 18° SE 04:01:52 10° E visible
